Hourly Weather Molepolole

Today, 24 September, Thursday

Time Temperature Precipitation Wind Pressure Humidity
00:00 +17°C° 0 mm 2 mps 666 mmHg 53%
01:00 +16°C° 0 mm 2 mps 666 mmHg 55%
02:00 +16°C° 0 mm 2 mps 666 mmHg 59%
03:00 +15°C° 0 mm 2 mps 666 mmHg 61%
04:00 +14°C° 0 mm 2 mps 665 mmHg 64%
05:00 +14°C° 0 mm 2 mps 665 mmHg 66%
06:00 +16°C° 0 mm 3 mps 666 mmHg 61%
07:00 +17°C° 0 mm 4 mps 667 mmHg 55%
08:00 +19°C° 0 mm 4 mps 668 mmHg 47%
09:00 +22°C° 0 mm 5 mps 668 mmHg 40%
10:00 +26°C° 0 mm 5 mps 668 mmHg 34%
11:00 +29°C° 0 mm 5 mps 668 mmHg 27%
12:00 +32°C° 0 mm 4 mps 668 mmHg 24%
13:00 +33°C° 0 mm 3 mps 667 mmHg 22%
14:00 +33°C° 0 mm 4 mps 667 mmHg 22%
15:00 +34°C° 0 mm 3 mps 667 mmHg 21%
16:00 +34°C° 0 mm 2 mps 666 mmHg 20%
17:00 +33°C° 0 mm 1 mps 665 mmHg 19%
18:00 +30°C° 0 mm 1 mps 665 mmHg 24%
19:00 +27°C° 0 mm 2 mps 664 mmHg 29%
20:00 +24°C° 0 mm 2 mps 664 mmHg 33%
21:00 +22°C° 0 mm 3 mps 664 mmHg 35%
22:00 +22°C° 0 mm 3 mps 664 mmHg 36%
23:00 +21°C° 0 mm 4 mps 664 mmHg 38%

Tomorrow, 25 September, Friday

Time Temperature Precipitation Wind Pressure Humidity
00:00 +21°C° 0 mm 4 mps 664 mmHg 38%
01:00 +21°C° 0 mm 4 mps 663 mmHg 39%
02:00 +20°C° 0 mm 4 mps 663 mmHg 40%
03:00 +20°C° 0 mm 4 mps 663 mmHg 41%
04:00 +19°C° 0 mm 3 mps 663 mmHg 43%
05:00 +18°C° 0 mm 3 mps 663 mmHg 44%
06:00 +20°C° 0 mm 3 mps 664 mmHg 40%
07:00 +22°C° 0 mm 3 mps 665 mmHg 36%
08:00 +25°C° 0 mm 3 mps 665 mmHg 31%
09:00 +28°C° 0 mm 4 mps 666 mmHg 26%
10:00 +32°C° 0 mm 6 mps 666 mmHg 22%
11:00 +35°C° 0 mm 7 mps 666 mmHg 17%
12:00 +36°C° 0 mm 7 mps 665 mmHg 15%
13:00 +38°C° 0 mm 7 mps 664 mmHg 13%
14:00 +39°C° 0 mm 6 mps 663 mmHg 12%
15:00 +39°C° 0 mm 6 mps 663 mmHg 12%
16:00 +38°C° 0 mm 6 mps 662 mmHg 12%
17:00 +38°C° 0 mm 6 mps 662 mmHg 11%
18:00 +35°C° 0 mm 5 mps 662 mmHg 14%
19:00 +32°C° 0 mm 4 mps 661 mmHg 17%
20:00 +28°C° 0 mm 2 mps 661 mmHg 19%
21:00 +28°C° 0 mm 2 mps 661 mmHg 20%
22:00 +27°C° 0 mm 2 mps 661 mmHg 22%
23:00 +26°C° 0 mm 3 mps 660 mmHg 23%

Day after tomorrow, 26 September, Saturday

Time Temperature Precipitation Wind Pressure Humidity
00:00 +25°C° 0 mm 2 mps 660 mmHg 24%
01:00 +24°C° 0 mm 2 mps 659 mmHg 25%
02:00 +24°C° 0 mm 2 mps 659 mmHg 26%
03:00 +22°C° 0 mm 3 mps 659 mmHg 25%
04:00 +21°C° 0 mm 4 mps 660 mmHg 25%
05:00 +20°C° 0 mm 5 mps 660 mmHg 24%
06:00 +21°C° 0 mm 5 mps 661 mmHg 21%
07:00 +22°C° 0 mm 6 mps 661 mmHg 18%
08:00 +23°C° 0 mm 7 mps 662 mmHg 15%
09:00 +26°C° 0 mm 7 mps 662 mmHg 13%
10:00 +29°C° 0 mm 7 mps 663 mmHg 10%
11:00 +33°C° 0 mm 6 mps 663 mmHg 7%
12:00 +34°C° 0 mm 6 mps 663 mmHg 7%
13:00 +34°C° 0 mm 7 mps 662 mmHg 6%
14:00 +35°C° 0 mm 7 mps 662 mmHg 6%
15:00 +34°C° 0 mm 7 mps 661 mmHg 6%
16:00 +33°C° 0 mm 7 mps 661 mmHg 6%
17:00 +32°C° 0 mm 6 mps 661 mmHg 6%
18:00 +28°C° 0 mm 6 mps 661 mmHg 8%
19:00 +25°C° 0 mm 5 mps 661 mmHg 10%
20:00 +21°C° 0 mm 4 mps 660 mmHg 13%
21:00 +20°C° 0 mm 4 mps 661 mmHg 14%
22:00 +19°C° 0 mm 5 mps 661 mmHg 16%
23:00 +17°C° 0 mm 5 mps 661 mmHg 17%

27 September, Sunday

Time Temperature Precipitation Wind Pressure Humidity
00:00 +16°C° 0 mm 5 mps 661 mmHg 17%
01:00 +15°C° 0 mm 5 mps 661 mmHg 17%
02:00 +14°C° 0 mm 5 mps 660 mmHg 17%
03:00 +13°C° 0 mm 5 mps 660 mmHg 17%
04:00 +12°C° 0 mm 5 mps 660 mmHg 17%
05:00 +12°C° 0 mm 5 mps 660 mmHg 17%
06:00 +14°C° 0 mm 4 mps 661 mmHg 15%
07:00 +17°C° 0 mm 4 mps 661 mmHg 13%
08:00 +19°C° 0 mm 4 mps 662 mmHg 11%
09:00 +22°C° 0 mm 4 mps 663 mmHg 9%
10:00 +26°C° 0 mm 4 mps 663 mmHg 7%
11:00 +29°C° 0 mm 3 mps 664 mmHg 5%
12:00 +32°C° 0 mm 4 mps 663 mmHg 5%
13:00 +33°C° 0 mm 5 mps 663 mmHg 5%
14:00 +34°C° 0 mm 6 mps 662 mmHg 4%
15:00 +33°C° 0 mm 6 mps 662 mmHg 4%
16:00 +33°C° 0 mm 6 mps 662 mmHg 4%
17:00 +32°C° 0 mm 6 mps 661 mmHg 4%
18:00 +27°C° 0 mm 6 mps 661 mmHg 6%
19:00 +23°C° 0 mm 5 mps 661 mmHg 8%
20:00 +20°C° 0 mm 5 mps 661 mmHg 9%
21:00 +19°C° 0 mm 5 mps 662 mmHg 10%
22:00 +19°C° 0 mm 6 mps 662 mmHg 12%
23:00 +17°C° 0 mm 7 mps 663 mmHg 13%

28 September, Monday

Time Temperature Precipitation Wind Pressure Humidity
00:00 +16°C° 0 mm 6 mps 663 mmHg 13%
01:00 +15°C° 0 mm 6 mps 663 mmHg 13%
02:00 +14°C° 0 mm 6 mps 662 mmHg 13%
03:00 +12°C° 0 mm 5 mps 662 mmHg 14%
04:00 +11°C° 0 mm 4 mps 662 mmHg 15%
05:00 +9°C° 0 mm 3 mps 662 mmHg 17%
06:00 +12°C° 0 mm 3 mps 663 mmHg 15%
07:00 +14°C° 0 mm 4 mps 664 mmHg 13%
08:00 +16°C° 0 mm 5 mps 665 mmHg 11%
09:00 +19°C° 0 mm 4 mps 666 mmHg 9%
10:00 +22°C° 0 mm 4 mps 666 mmHg 7%
11:00 +26°C° 0 mm 4 mps 667 mmHg 5%
12:00 +28°C° 0 mm 3 mps 666 mmHg 4%
13:00 +30°C° 0 mm 2 mps 666 mmHg 3%
14:00 +31°C° 0 mm 1 mps 665 mmHg 3%
15:00 +31°C° 0 mm 1 mps 665 mmHg 3%
16:00 +31°C° 0 mm 1 mps 665 mmHg 3%
17:00 +31°C° 0 mm 1 mps 664 mmHg 3%
18:00 +27°C° 0 mm 2 mps 664 mmHg 4%
19:00 +24°C° 0 mm 2 mps 664 mmHg 4%
20:00 +19°C° 0 mm 3 mps 663 mmHg 5%
21:00 +18°C° 0 mm 3 mps 663 mmHg 5%
22:00 +17°C° 0 mm 3 mps 664 mmHg 5%
23:00 +15°C° 0 mm 4 mps 664 mmHg 5%

29 September, Tuesday

Time Temperature Precipitation Wind Pressure Humidity
00:00 +14°C° 0 mm 4 mps 664 mmHg 6%
01:00 +14°C° 0 mm 4 mps 664 mmHg 6%
02:00 +13°C° 0 mm 4 mps 663 mmHg 7%
03:00 +12°C° 0 mm 3 mps 663 mmHg 8%
04:00 +10°C° 0 mm 2 mps 663 mmHg 9%
05:00 +9°C° 0 mm 2 mps 662 mmHg 9%
06:00 +13°C° 0 mm 2 mps 663 mmHg 8%
07:00 +16°C° 0 mm 2 mps 665 mmHg 7%
08:00 +19°C° 0 mm 2 mps 666 mmHg 5%
09:00 +23°C° 0 mm 2 mps 666 mmHg 9%
10:00 +26°C° 0 mm 2 mps 666 mmHg 12%
11:00 +29°C° 0 mm 2 mps 667 mmHg 15%
12:00 +30°C° 0 mm 2 mps 666 mmHg 13%
13:00 +32°C° 0 mm 1 mps 665 mmHg 11%
14:00 +34°C° 0 mm 1 mps 665 mmHg 9%
15:00 +35°C° 0 mm 2 mps 664 mmHg 8%
16:00 +35°C° 0 mm 3 mps 664 mmHg 7%
17:00 +34°C° 0 mm 4 mps 663 mmHg 5%
18:00 +30°C° 0 mm 4 mps 663 mmHg 8%
19:00 +26°C° 0 mm 3 mps 662 mmHg 10%
20:00 +21°C° 0 mm 3 mps 662 mmHg 12%
21:00 +20°C° 0 mm 2 mps 662 mmHg 13%
22:00 +19°C° 0 mm 2 mps 662 mmHg 14%
23:00 +19°C° 0 mm 1 mps 662 mmHg 16%
Show more